Theta_e
353 353 351 351 352 352 352 352 352 352 352 354 353 352 351 350 350 350 351 352 352 350 350 351 352 349 348 351 351 347 343 346 349 350 351 350 349 350 347 340 334 335 336 334 336 337 339 343 346 348 347 347 347 346 347 349 351 349 347 347 347 348 348 348 345 343 344 342 342 344 340 338 338 336 339 340 340 339 340 340 339 339 338 338 339
353 353 352 352 352 352 352 353 353 354 353 353 354 352 351 351 350 350 351 352 352 348 345 348 349 346 344 348 351 349 343 343 347 349 351 350 349 350 348 342 335 334 336 336 336 337 338 340 345 347 346 347 347 346 346 346 348 347 346 347 349 349 349 350 345 342 346 343 341 344 339 339 340 337 338 339 339 340 339 339 339 339 338 336 336
354 354 354 352 352 353 353 354 354 354 354 354 355 353 352 352 351 351 352 352 352 348 343 344 347 345 342 344 349 351 347 343 345 347 349 351 350 350 349 344 336 334 335 336 336 338 340 340 344 347 346 346 346 347 346 346 347 347 347 347 349 351 350 350 344 341 348 343 339 342 338 337 336 333 338 338 338 340 338 339 339 339 337 336 337
354 353 354 353 353 354 353 354 354 353 354 354 355 355 353 353 352 351 352 352 352 350 345 343 346 346 345 346 348 351 350 348 347 348 350 352 351 351 350 345 338 335 336 336 336 338 340 341 346 348 347 347 348 348 347 347 348 347 348 348 349 352 351 351 345 341 346 340 336 343 340 339 336 331 336 338 337 338 337 338 339 338 338 337 338
355 354 354 354 353 353 353 354 355 354 354 355 356 356 354 353 353 352 352 352 352 352 349 346 347 347 346 348 350 350 352 351 350 351 352 352 351 352 351 345 338 336 336 336 336 337 339 343 348 349 347 346 347 348 348 349 348 348 349 349 349 352 352 352 347 344 345 339 337 341 340 342 339 333 336 337 337 337 335 338 338 338 337 335 337
354 354 352 353 353 353 353 354 356 355 354 355 356 357 354 353 353 351 351 353 352 352 351 348 346 345 345 347 349 348 350 352 351 350 352 351 350 351 351 345 338 336 335 334 335 336 338 343 348 348 347 347 347 347 349 349 349 349 350 350 350 351 351 351 349 347 344 340 340 340 340 343 340 334 337 336 337 338 335 337 338 338 338 335 335
354 355 352 354 353 353 354 355 357 356 355 357 357 357 355 353 352 350 349 351 352 352 352 348 345 343 343 343 343 342 346 352 350 348 352 352 348 349 352 348 340 335 334 334 335 336 338 342 347 347 347 347 347 347 347 348 350 350 351 351 352 349 347 347 348 347 343 340 340 339 341 344 339 337 338 335 336 338 335 336 338 338 340 337 334
354 355 353 353 351 352 354 355 358 357 356 358 358 357 355 352 349 346 346 347 350 351 351 349 346 344 342 340 340 340 342 348 350 349 351 353 351 349 351 350 343 336 336 337 336 336 337 341 345 347 346 347 347 347 347 348 351 352 351 351 350 346 343 342 343 346 345 340 337 337 342 344 339 340 342 337 336 337 336 337 338 339 339 338 337
354 354 354 353 352 351 354 357 358 357 357 358 358 357 355 352 347 343 341 343 348 351 349 348 346 345 343 339 338 341 343 346 350 351 350 353 353 351 350 351 348 343 340 340 340 337 337 340 346 348 345 345 346 347 350 350 350 352 352 350 347 344 343 341 338 342 347 343 336 335 341 343 340 341 343 340 338 338 336 336 338 339 339 338 338
351 353 353 353 352 352 353 356 358 356 357 358 359 359 356 354 350 344 341 340 344 347 346 344 346 346 343 339 337 340 343 347 351 352 350 348 351 353 352 350 351 350 345 344 343 341 338 339 344 348 346 346 347 347 350 352 350 351 351 351 348 345 344 342 337 338 346 346 342 338 338 340 340 339 342 341 339 341 338 337 338 338 339 339 338
351 351 353 354 352 351 353 357 358 356 356 358 359 360 358 355 351 347 342 339 340 343 342 341 342 344 342 339 336 336 340 347 351 353 350 346 348 352 352 350 351 352 349 346 344 343 340 338 342 345 345 346 346 346 348 349 350 351 351 351 349 346 343 342 340 339 343 347 347 342 334 338 342 339 340 341 340 342 340 340 340 339 340 339 339
351 352 353 353 352 353 353 355 357 355 356 358 359 360 360 356 351 348 346 342 339 341 341 339 340 341 339 338 336 336 337 343 348 350 349 346 346 348 351 350 350 352 351 349 345 342 341 338 339 342 343 344 344 345 345 346 350 352 352 351 349 347 343 342 342 338 339 345 348 343 332 337 345 340 341 342 340 341 340 340 342 339 340 340 339
348 351 353 352 351 352 353 353 355 355 355 358 359 360 360 356 352 348 346 344 341 340 339 339 338 337 336 335 335 335 337 340 343 344 344 344 343 346 349 348 346 349 351 350 346 344 342 339 339 340 341 342 342 343 344 345 347 351 353 353 349 346 342 343 343 335 334 341 347 345 334 336 344 341 340 343 341 341 341 340 342 340 340 341 340
347 350 350 350 349 350 351 352 353 355 357 359 359 359 359 358 353 348 344 342 341 340 339 338 337 335 333 334 334 333 335 338 339 339 339 340 340 342 344 344 341 342 345 347 346 347 345 340 339 339 340 341 341 342 344 345 346 349 352 353 351 348 342 343 343 336 331 331 340 347 341 337 344 342 340 342 342 342 341 340 342 341 340 341 339
347 348 349 349 349 350 350 351 353 356 358 360 361 359 359 358 353 347 343 342 341 340 340 338 338 335 334 333 334 333 334 335 336 336 336 337 337 337 340 341 339 337 337 341 345 347 347 344 340 338 339 340 340 341 343 344 345 348 349 350 351 350 345 343 343 337 331 326 330 343 346 342 344 345 342 341 342 343 340 338 340 340 339 340 340
347 348 349 348 349 350 350 350 353 359 360 361 362 360 358 358 355 348 343 340 339 340 340 338 337 336 334 334 334 334 334 335 335 335 335 336 336 336 338 339 340 339 337 337 341 344 347 348 345 340 338 339 339 340 341 343 343 345 347 347 348 349 346 344 344 339 333 328 326 335 346 346 344 345 345 342 341 343 342 339 339 339 339 339 339
347 348 350 350 351 351 351 351 353 358 361 362 362 360 359 358 356 352 347 341 337 338 338 337 336 335 335 334 334 334 335 335 334 334 334 334 336 338 339 339 340 342 341 340 341 341 345 348 347 342 338 338 340 341 341 342 341 342 344 343 343 345 345 344 344 343 335 332 329 328 338 347 346 344 346 345 342 342 343 342 341 338 337 341 342
346 349 350 350 352 352 352 353 354 358 362 362 361 360 359 358 357 355 350 343 338 336 337 336 335 335 335 334 333 334 333 334 333 333 334 334 336 339 341 343 342 343 344 345 345 344 343 345 344 342 338 335 338 341 342 343 343 342 341 340 337 339 343 344 344 344 339 335 337 331 329 340 349 346 344 345 344 342 342 343 342 338 334 340 344
345 348 348 348 350 353 356 355 356 360 363 363 362 361 360 360 359 356 348 342 338 337 336 337 336 335 334 333 334 333 333 334 333 334 335 335 336 339 342 344 343 342 343 345 347 347 345 345 343 342 340 336 337 339 343 344 344 344 342 338 335 337 341 344 343 345 342 337 341 341 332 331 342 344 341 343 344 342 341 339 338 335 330 333 340
343 346 348 346 345 350 356 356 353 359 364 364 362 363 362 363 364 360 353 346 342 339 337 338 337 335 334 333 333 333 333 333 334 334 336 335 337 340 341 343 344 343 343 342 345 346 347 347 344 342 342 339 336 337 339 342 343 344 343 338 335 336 340 344 343 344 345 339 337 342 341 333 331 335 335 338 341 340 336 334 332 330 326 327 331
341 344 348 348 348 350 355 356 354 357 363 365 363 363 363 365 367 364 360 353 347 343 339 338 337 335 335 334 333 333 333 333 334 335 337 336 337 340 341 343 344 345 345 344 342 342 345 347 346 344 343 340 338 336 336 338 340 341 342 340 337 336 338 343 343 342 344 341 335 337 343 341 332 328 328 330 334 334 330 329 328 326 325 325 326
342 344 347 348 349 350 351 351 353 356 362 364 364 363 363 365 368 367 365 360 352 347 341 338 336 336 336 335 334 333 333 333 334 335 335 337 338 340 341 344 347 347 347 345 342 341 343 347 348 346 344 342 340 339 337 338 337 336 338 339 338 338 337 340 344 343 339 337 335 332 337 341 339 333 328 325 328 330 328 326 326 325 324 323 324
341 344 346 347 346 346 345 346 349 354 361 364 364 364 364 365 367 368 368 364 357 350 346 341 339 337 336 336 335 333 334 333 334 334 335 336 338 339 340 343 346 348 349 348 346 344 342 343 347 347 346 344 342 341 341 341 340 337 336 336 337 339 339 338 342 343 339 335 335 331 330 335 338 336 332 328 327 329 329 327 326 325 324 323 323
341 344 344 346 346 348 349 349 352 356 362 366 365 364 364 364 366 367 368 367 362 357 352 345 342 339 337 337 336 335 334 334 333 333 334 335 334 337 339 340 343 347 350 349 349 349 345 341 344 348 348 346 344 342 342 342 343 341 337 335 335 337 340 340 340 342 342 338 337 333 327 328 333 334 331 328 327 328 328 329 328 327 327 326 326
340 343 345 347 350 352 354 354 357 360 363 366 365 365 365 365 366 367 368 368 367 364 359 352 344 342 339 337 337 336 335 334 335 334 334 334 334 336 338 339 340 344 349 350 350 351 349 344 341 343 347 346 346 344 343 343 343 343 341 337 335 336 339 341 341 341 342 341 340 337 332 327 329 331 328 326 325 325 327 329 330 330 330 329 330
341 343 343 344 345 349 350 353 359 362 364 364 365 366 365 365 365 366 366 368 367 366 364 358 350 344 341 339 336 336 337 335 334 335 334 335 336 338 339 339 339 341 344 349 352 349 348 346 340 340 343 345 345 346 345 344 344 345 345 340 336 335 337 340 342 340 340 341 342 340 338 333 330 329 327 325 325 325 325 327 329 330 332 332 331
342 344 343 341 343 347 350 352 357 362 362 364 366 365 365 365 366 365 366 367 367 365 364 362 357 350 346 343 338 337 339 338 335 335 337 339 339 339 343 344 343 342 342 345 350 350 347 346 343 342 343 344 344 345 346 346 346 347 348 345 340 337 336 338 340 341 341 341 341 342 342 339 335 332 328 326 325 325 326 326 327 329 331 333 332
346 346 345 343 344 350 355 356 359 362 362 363 364 365 365 365 365 365 364 365 365 364 362 363 362 358 352 346 340 336 338 339 338 336 338 343 344 344 347 349 349 349 346 345 349 352 351 348 347 345 345 345 345 345 346 347 347 348 350 349 346 341 339 339 338 340 343 344 343 343 343 342 340 337 333 329 327 325 326 326 328 329 330 332 332
348 349 346 344 347 354 358 359 362 363 362 363 363 364 365 364 364 365 365 364 364 363 363 362 362 362 357 351 345 340 338 338 339 340 339 342 344 346 348 350 352 354 353 352 351 353 355 354 352 350 348 349 349 346 346 347 346 347 348 350 348 345 345 344 341 341 344 346 346 346 346 343 341 340 339 335 330 327 326 327 327 329 330 331 331
346 347 346 345 352 357 358 359 362 362 361 361 362 363 364 363 364 364 364 363 363 362 362 361 361 361 359 356 351 346 341 339 338 339 339 339 342 346 349 349 352 353 355 357 356 355 356 357 357 356 354 353 351 349 346 345 345 344 344 346 348 347 347 347 345 343 345 347 347 347 349 348 344 341 340 338 335 333 330 329 328 328 329 329 330
342 341 338 339 345 352 356 358 359 360 361 361 359 361 363 363 363 363 363 363 362 362 360 360 360 360 360 359 356 351 346 341 338 338 338 339 341 344 347 350 352 353 354 356 357 357 356 357 358 359 358 356 353 350 346 343 342 342 342 343 344 345 347 348 346 345 345 346 346 346 349 352 350 345 342 340 339 338 335 332 331 331 330 331 330
346 346 344 343 342 341 342 347 349 352 356 359 359 359 360 361 361 361 361 361 361 362 361 359 360 360 361 360 357 355 350 344 340 339 338 339 341 343 346 348 351 353 354 354 356 358 357 356 357 359 360 359 356 352 348 344 341 340 341 342 342 343 345 347 347 346 344 344 345 346 348 352 351 347 344 342 342 341 340 337 335 333 332 333 332
343 348 349 349 352 351 347 349 351 352 352 354 357 358 358 359 359 359 360 361 360 361 361 361 360 360 361 361 359 357 354 347 342 341 340 341 342 343 343 346 349 352 354 354 354 355 355 355 356 358 359 360 359 356 352 348 345 342 340 342 342 343 344 345 346 346 345 344 344 345 347 349 351 349 346 344 344 344 344 342 340 338 335 335 335
335 338 340 342 348 355 354 351 354 355 354 352 354 357 358 357 356 357 359 359 359 359 359 361 360 360 362 362 361 358 356 353 348 345 346 346 344 342 343 345 348 350 352 353 352 353 354 354 353 354 357 359 359 358 355 352 348 345 342 342 342 342 342 343 344 345 346 345 343 344 345 346 348 349 347 346 347 347 347 345 343 341 339 336 336
333 337 345 346 345 348 350 351 349 349 354 357 355 354 357 357 356 356 356 357 358 358 358 360 360 361 361 361 362 361 358 357 355 352 351 349 346 345 345 346 349 351 351 352 352 352 353 353 352 352 354 357 358 358 357 354 351 349 346 344 343 344 344 343 343 345 346 346 345 344 344 345 346 347 345 344 346 348 348 347 345 343 341 338 337
337 345 352 352 348 346 347 347 345 341 344 352 355 355 355 355 355 355 354 357 357 356 357 358 359 361 361 362 362 361 361 360 359 358 356 353 351 349 348 348 350 352 354 355 354 353 354 354 355 354 353 353 356 358 358 357 355 353 354 352 348 347 346 345 345 346 347 347 346 346 346 347 347 347 344 343 344 348 349 348 345 343 341 340 338
346 351 354 352 349 349 348 347 347 345 344 345 348 351 353 353 354 355 355 355 356 356 355 356 358 360 360 362 362 362 362 361 361 360 358 356 355 353 352 352 351 353 356 356 356 355 355 355 357 356 354 351 351 356 359 360 359 359 359 359 356 353 351 348 347 347 347 347 347 347 348 348 348 348 347 344 345 348 350 349 347 344 342 342 339
355 357 359 354 348 350 352 349 348 348 349 347 345 345 350 352 352 354 354 354 354 355 355 355 356 359 360 361 362 361 362 362 361 362 361 360 358 358 357 356 355 354 354 356 357 358 357 356 357 356 356 353 352 353 356 360 362 362 361 361 360 358 357 353 351 350 350 349 348 347 348 348 348 348 348 347 347 348 350 350 348 346 345 343 340
360 362 360 350 345 348 348 345 349 353 354 354 349 343 344 349 352 351 353 354 354 354 356 356 355 358 359 360 361 361 362 362 362 362 364 364 361 359 360 359 358 356 356 356 359 360 359 360 358 358 357 357 356 356 355 357 361 363 363 363 362 362 360 357 355 354 352 352 351 351 350 349 348 349 348 348 348 349 350 350 348 348 347 344 338
359 359 355 344 344 357 359 357 363 366 363 362 359 351 346 345 350 352 351 353 353 353 355 356 356 357 359 359 360 361 361 362 363 364 365 365 362 361 361 361 360 359 358 358 359 360 362 363 363 362 360 359 360 360 358 358 358 360 362 363 363 363 362 360 358 357 355 354 353 353 353 351 351 352 351 349 349 349 350 351 349 349 347 343 338
354 356 356 348 350 363 363 359 363 366 363 363 361 357 352 347 348 352 352 352 353 353 352 355 355 356 358 359 361 361 361 363 365 367 366 365 363 362 362 362 362 362 360 359 359 361 363 363 364 365 364 362 362 363 361 360 358 359 361 362 362 362 362 361 361 360 358 356 354 355 355 354 354 354 354 352 350 349 350 351 351 348 345 342 340
350 356 359 355 355 364 365 363 366 365 364 365 362 358 357 352 348 352 352 351 353 353 352 355 355 356 358 359 361 361 362 365 366 368 367 366 364 363 363 363 364 363 363 362 361 361 362 364 364 365 365 365 365 364 363 362 361 362 363 363 362 362 362 363 363 361 361 359 357 357 356 356 356 356 356 355 354 352 351 352 351 349 346 345 345
352 357 359 355 357 364 366 365 364 361 359 361 363 362 360 356 352 353 354 353 353 354 355 354 354 356 357 359 361 362 364 366 368 368 367 365 365 365 365 366 365 365 364 363 363 362 362 363 364 364 365 365 365 365 364 363 364 364 364 364 363 363 364 363 363 362 361 360 359 358 358 357 357 357 358 357 356 354 354 353 352 351 350 348 347
354 357 357 354 357 363 363 362 362 360 354 350 356 363 362 359 357 357 356 356 355 355 356 356 354 356 357 359 361 364 365 368 369 368 367 367 367 367 367 367 367 366 366 366 365 365 364 364 364 364 364 364 365 365 365 365 364 365 364 364 363 363 363 363 363 362 361 360 360 359 359 358 358 358 359 358 357 356 356 354 353 353 352 351 349
353 355 355 353 356 360 360 358 360 362 357 352 358 365 365 362 362 360 358 357 356 356 359 357 355 357 357 359 363 366 368 370 369 369 369 369 369 369 369 367 367 367 366 366 365 366 365 365 364 364 364 364 363 364 364 364 363 363 363 362 362 361 362 362 362 361 361 361 360 359 359 359 359 359 360 359 358 358 358 356 355 354 354 353 351
352 354 353 352 355 357 357 357 359 361 361 360 364 368 367 367 367 364 362 360 357 359 361 360 360 362 362 361 364 367 370 370 369 369 369 369 369 369 368 368 368 368 366 365 365 366 367 366 365 364 363 363 363 362 362 363 363 362 362 361 362 361 361 361 361 361 361 360 360 360 360 359 359 359 360 359 359 359 358 357 356 355 355 354 352
352 353 353 353 355 356 355 357 358 358 359 360 363 365 365 366 366 365 364 361 359 363 365 364 365 367 366 366 368 369 369 369 368 368 368 368 368 368 368 367 367 366 366 365 365 365 366 366 366 365 363 363 363 362 362 362 362 362 362 362 362 362 362 362 361 361 361 360 360 360 360 359 359 358 359 359 359 358 357 357 357 356 356 354 353
351 351 351 354 355 355 356 356 356 355 356 358 359 359 361 363 364 365 365 363 363 367 369 367 367 369 368 367 368 369 369 368 368 367 367 367 367 366 366 368 367 366 366 365 364 365 365 365 365 364 363 362 362 362 362 362 362 362 361 361 362 361 361 361 361 361 361 360 360 360 360 360 359 359 359 359 358 357 356 356 356 356 356 354 352
350 349 349 351 354 354 354 354 354 354 354 356 356 356 358 361 362 364 366 366 364 365 368 367 367 367 367 367 367 367 368 367 367 367 366 366 365 365 366 366 367 366 366 365 365 365 364 364 363 362 362 363 363 363 363 362 362 362 361 361 361 361 361 361 361 361 361 360 359 360 359 359 359 359 359 359 358 358 357 356 355 355 355 354 353
349 349 349 351 352 353 354 353 353 352 353 354 354 354 355 357 359 362 366 367 364 364 365 366 365 366 365 366 367 366 366 366 366 365 365 365 364 364 365 364 365 365 365 365 366 366 365 365 364 362 362 362 362 363 363 362 362 362 361 361 361 360 360 359 359 360 359 359 359 359 360 360 359 359 359 359 359 359 358 357 356 355 355 354 353
348 348 350 351 351 352 352 352 351 352 352 352 352 352 354 356 358 361 364 366 365 366 367 366 365 365 365 364 365 364 364 365 366 365 364 364 365 366 366 365 364 364 364 364 364 364 364 364 363 363 363 363 362 362 361 361 361 361 360 360 359 358 357 356 355 355 353 351 350 350 351 354 357 358 357 359 359 359 359 358 357 356 355 354 353
Wind_Speed
26 27 28 28 28 28 28 29 30 29 30 31 32 34 33 31 30 30 30 29 30 32 31 26 23 25 25 22 20 22 21 21 19 16 15 16 15 17 19 15 15 14 13 14 14 13 12 11 9 8 7 6 4 4 4 5 5 3 3 3 1 1 2 4 6 7 6 5 10 6 2 6 4 6 10 6 5 5 5 7 6 5 6 5 4
25 27 28 29 28 29 29 30 31 32 32 33 33 35 35 33 33 33 31 31 31 32 32 28 26 26 26 24 20 19 21 21 21 18 15 15 16 18 19 16 15 14 13 13 14 13 13 12 10 8 7 6 5 5 4 5 4 3 3 2 1 1 2 4 5 7 6 5 11 9 4 6 5 6 9 7 7 5 4 7 6 5 6 4 3
25 28 29 30 30 30 30 31 33 33 32 33 34 35 36 34 35 34 32 33 32 31 32 31 28 27 26 25 21 17 18 20 20 19 17 15 16 19 21 18 15 15 15 14 14 14 13 12 11 9 7 7 7 5 5 5 5 4 4 3 2 2 2 3 3 6 5 2 7 8 6 8 7 7 8 7 10 7 6 9 7 6 7 4 2
27 29 30 31 31 32 32 32 33 34 33 34 35 35 37 35 36 37 34 34 33 31 32 31 29 27 25 23 20 17 15 17 17 17 18 17 17 19 21 20 16 15 15 14 14 14 12 12 11 10 8 7 7 6 6 5 5 5 5 4 4 2 2 3 3 7 5 3 6 7 6 8 8 8 8 9 11 8 8 9 7 7 8 5 5
29 30 31 33 34 34 35 34 33 35 35 36 37 37 39 38 37 38 35 34 34 32 30 30 30 29 25 21 20 19 16 16 18 18 18 19 18 19 21 20 17 16 16 15 14 14 13 12 11 10 9 8 7 7 6 5 5 5 5 5 5 3 4 4 3 6 6 6 8 6 5 6 7 9 8 9 9 5 7 10 8 8 9 6 7
30 31 32 33 34 34 35 35 34 36 37 37 39 39 39 40 39 39 37 35 35 34 31 30 30 30 29 25 24 24 21 19 21 21 20 20 20 19 20 19 17 16 17 16 15 14 13 12 11 11 10 8 7 6 6 5 5 6 6 5 5 5 6 6 3 4 6 9 9 7 5 4 6 10 9 9 7 5 7 9 8 9 9 5 6
31 31 32 34 35 35 36 37 37 38 39 38 39 39 39 40 40 39 39 37 36 35 34 32 31 30 30 29 27 26 26 23 23 21 20 20 20 19 19 20 16 15 16 17 16 15 14 13 12 12 11 9 8 7 6 6 6 6 6 6 5 6 7 6 5 5 4 5 10 11 7 5 5 7 6 8 7 6 9 7 7 10 7 3 5
32 32 33 35 37 38 38 40 39 38 38 38 39 40 40 41 41 40 39 38 37 36 36 34 32 31 30 29 27 26 27 25 23 21 20 19 19 19 19 20 17 15 17 17 17 16 15 14 13 13 12 11 9 7 6 7 7 7 6 7 6 5 6 5 7 6 5 3 8 14 9 2 8 8 2 7 8 6 10 8 8 10 5 2 3
32 33 34 36 40 43 43 41 38 36 37 39 41 41 41 41 41 41 40 39 38 37 37 36 34 33 31 30 28 26 26 25 23 21 22 21 19 18 19 19 19 17 16 17 18 17 16 16 14 13 13 12 11 8 7 8 8 8 8 8 7 6 6 5 6 8 5 4 6 14 11 6 10 8 0 6 9 6 9 7 7 9 7 6 3
32 33 34 38 43 43 41 39 37 35 36 38 40 40 41 42 42 42 42 41 40 38 37 37 36 34 33 32 30 27 26 25 23 22 23 23 20 19 20 20 20 19 17 17 19 18 17 17 16 14 13 13 12 10 9 9 9 9 9 8 8 7 7 5 6 10 7 3 5 10 10 8 11 9 3 7 11 9 9 8 7 8 9 10 6
31 32 32 34 38 37 36 38 39 38 36 36 37 39 41 43 43 43 42 42 41 39 39 37 36 36 35 34 32 29 28 26 24 23 23 23 23 22 22 22 22 21 19 17 19 20 18 17 18 16 14 14 13 12 11 10 9 9 9 9 9 8 8 7 7 11 11 7 4 8 11 11 10 10 7 9 10 9 10 10 9 9 9 11 9
29 31 32 32 33 35 39 43 43 40 38 38 38 39 42 44 44 44 43 42 42 41 40 39 37 37 36 34 33 31 30 29 27 26 25 25 25 25 24 24 24 23 21 19 19 21 20 18 18 18 17 15 14 13 12 11 10 10 10 10 10 9 9 9 8 9 14 13 6 6 10 12 10 10 11 10 9 8 10 8 7 8 9 10 11
30 32 34 34 36 37 41 45 43 41 42 43 41 40 43 45 45 45 44 43 43 42 41 40 39 38 37 36 34 33 32 31 30 29 28 27 26 26 26 25 26 25 24 22 20 21 21 19 18 18 18 17 16 14 13 12 12 11 11 11 12 11 9 10 10 8 14 18 11 5 9 11 10 10 10 11 9 9 11 8 5 7 8 9 10
30 32 34 35 38 39 40 43 42 42 45 45 44 43 44 46 46 46 45 44 43 43 42 42 41 40 38 37 36 34 33 33 32 32 30 29 28 27 27 26 26 26 25 24 22 21 20 20 19 19 19 18 17 15 14 13 13 13 14 13 12 11 10 11 12 9 13 18 15 10 8 9 10 10 10 11 10 11 13 12 8 8 8 8 10
34 35 37 37 39 39 39 40 41 45 47 45 45 46 46 47 48 47 46 45 44 43 43 43 42 40 39 38 37 36 35 34 33 33 32 31 30 29 28 27 26 26 25 24 23 21 20 20 20 18 19 19 18 17 15 15 14 14 15 15 12 12 11 12 13 11 12 15 16 16 13 10 10 10 10 10 10 10 12 12 11 11 9 7 9
40 39 42 42 40 38 38 39 40 44 46 45 45 47 48 48 48 48 46 45 44 43 43 43 42 41 40 39 38 37 36 35 34 34 33 33 32 31 30 28 27 26 24 24 24 23 21 21 21 19 18 19 18 18 17 17 16 15 16 15 14 14 14 14 14 13 13 14 15 18 18 14 11 12 11 10 11 10 10 11 13 14 12 9 9
41 42 44 44 44 42 42 43 44 46 47 47 48 49 50 49 49 49 47 45 44 44 43 43 42 41 40 40 39 39 38 37 36 36 35 34 33 32 31 30 28 27 25 24 24 24 23 23 24 22 20 19 19 19 19 19 18 17 18 17 16 16 17 16 15 15 14 15 15 17 19 18 15 14 14 12 12 13 11 12 15 15 15 13 12
37 41 43 43 45 46 45 46 47 49 49 49 49 49 49 49 48 49 48 47 45 44 44 43 43 42 41 41 40 40 39 39 38 37 36 36 35 34 33 31 30 29 27 25 24 24 24 25 26 25 23 21 20 20 20 20 20 20 20 19 17 18 19 19 18 17 16 16 16 16 18 20 19 18 18 16 14 16 17 17 17 16 16 17 15
32 38 42 41 41 43 44 43 44 46 48 47 46 45 45 46 47 48 47 46 45 45 45 45 44 43 42 42 41 41 41 40 40 39 37 37 36 35 34 33 31 30 29 28 26 25 24 25 26 27 26 24 22 21 21 21 22 22 21 21 19 20 21 21 20 19 18 17 18 18 17 20 22 20 19 19 17 18 19 19 18 17 16 17 17
31 34 40 39 37 39 40 38 39 42 44 43 41 42 42 42 44 47 46 45 46 46 46 46 45 44 44 43 42 42 42 42 41 40 39 39 38 36 36 34 33 31 30 29 28 27 26 26 27 27 27 27 25 24 24 23 23 23 22 22 21 21 22 23 23 22 21 20 20 21 20 20 22 22 21 21 20 20 20 19 19 18 16 16 17
34 33 36 36 34 35 36 36 36 38 39 40 40 41 40 39 41 44 46 46 47 47 47 46 46 45 45 44 44 43 43 43 42 41 40 39 39 38 36 35 33 32 31 30 30 30 29 28 27 27 28 28 27 27 27 26 26 25 24 23 23 22 23 24 25 25 24 23 23 23 23 22 22 23 23 23 23 22 21 20 19 19 18 17 17
34 34 35 35 34 32 32 34 35 37 38 39 40 40 40 39 39 41 43 45 47 47 47 47 46 46 46 45 45 44 44 44 43 43 42 41 39 38 37 35 33 33 32 31 31 31 31 30 29 28 28 28 27 27 28 28 28 28 27 25 24 24 24 25 26 26 26 26 25 24 25 25 24 24 24 24 24 23 23 21 20 20 20 19 17
32 34 34 34 34 33 31 29 32 38 40 39 39 40 41 41 39 39 41 44 45 46 47 47 47 47 47 46 46 45 45 45 45 44 44 42 41 39 38 36 35 33 33 33 32 31 32 32 31 30 30 29 29 29 28 29 29 29 29 28 26 25 26 26 26 26 26 25 25 24 25 26 26 26 25 25 25 24 24 23 21 20 20 20 19
30 32 33 33 34 35 35 32 34 39 41 40 40 40 40 41 40 40 41 42 43 44 45 46 47 47 47 47 46 46 46 46 46 46 45 43 43 42 40 39 37 36 34 33 33 32 32 33 32 32 32 31 31 31 31 31 31 31 30 29 28 27 27 28 28 27 26 26 25 25 25 26 28 29 28 27 26 25 25 24 23 22 21 20 20
29 28 32 35 34 34 37 37 37 40 39 39 40 39 39 40 41 40 40 40 41 41 42 45 46 47 48 48 48 47 47 47 47 46 45 44 44 43 42 40 39 38 35 34 33 34 33 34 34 33 33 34 33 33 34 34 34 34 33 32 30 29 29 29 30 29 29 29 28 27 26 25 27 30 29 28 27 27 26 26 25 24 22 21 20
30 26 29 31 30 30 31 32 36 38 37 38 39 37 37 38 39 39 38 39 40 40 40 42 45 47 47 48 49 48 48 48 47 46 45 44 44 43 42 41 40 39 37 35 35 35 35 35 35 35 35 35 35 35 35 36 35 36 36 34 33 32 32 31 31 31 30 30 30 29 28 27 27 29 29 28 28 28 28 28 27 26 25 23 22
26 24 28 30 28 28 28 30 37 39 36 36 37 36 36 37 38 37 36 37 39 39 40 41 42 44 46 47 49 48 48 48 47 46 44 43 43 43 41 40 40 39 38 37 36 36 37 37 37 36 36 36 36 36 36 36 36 36 36 36 35 33 33 33 33 32 32 32 32 31 31 30 29 29 29 28 27 28 29 29 29 28 27 26 25
18 17 24 28 26 26 30 34 38 38 35 34 34 34 35 35 36 36 35 36 38 39 40 41 40 42 43 46 47 47 47 47 46 46 44 42 42 41 40 38 37 38 38 38 37 36 37 38 38 37 37 36 36 37 37 37 38 37 36 36 35 34 34 34 34 33 33 33 33 33 33 32 31 31 31 29 28 28 29 30 30 30 29 28 28
16 13 19 25 23 23 29 33 35 35 34 33 32 33 35 35 34 35 35 35 36 39 40 41 41 42 42 44 45 45 46 46 46 46 45 44 42 41 40 39 38 37 37 36 36 35 35 37 37 38 38 37 37 38 38 38 38 39 38 37 36 36 35 35 34 34 34 34 33 33 34 34 33 33 32 31 30 29 30 30 30 31 31 31 31
16 15 19 24 22 21 26 29 30 32 32 31 32 33 34 34 33 34 35 35 35 38 40 41 42 43 42 42 43 43 44 45 46 46 46 45 44 42 40 40 40 39 37 36 35 34 35 36 37 37 38 38 39 39 40 40 40 39 39 39 38 37 37 36 36 35 35 35 34 33 33 33 33 33 32 32 31 30 31 31 31 31 32 32 32
21 19 21 24 22 21 24 26 28 30 30 30 31 31 32 32 32 33 34 34 34 37 41 42 42 42 42 41 42 43 43 43 45 45 46 45 45 44 42 41 41 40 39 38 37 36 36 36 36 38 39 39 40 40 40 40 40 40 40 40 40 39 39 38 38 37 37 37 36 35 33 32 33 34 34 33 32 31 31 32 32 32 32 32 33
24 24 23 22 23 23 23 24 26 28 29 30 30 29 29 30 31 31 32 33 34 37 40 43 42 41 42 42 42 42 42 43 43 44 45 45 45 44 44 43 42 42 41 41 40 39 38 37 37 38 39 40 40 40 40 40 40 40 40 40 40 41 41 40 40 40 40 39 39 38 36 36 37 37 37 36 35 33 32 33 33 33 32 33 33
17 20 20 19 21 23 21 20 21 23 25 27 28 28 29 29 29 30 30 32 35 36 38 42 43 43 43 43 43 43 43 43 43 43 43 44 45 45 45 45 44 43 42 43 43 42 41 39 39 39 40 40 40 40 40 39 39 39 39 39 40 41 42 42 43 43 42 42 41 41 40 40 40 40 39 39 38 36 35 34 33 33 33 34 34
5 7 9 9 13 17 15 13 15 17 19 23 24 26 28 28 27 29 31 33 35 35 36 39 43 44 44 43 43 43 44 44 43 43 43 43 45 45 45 45 44 43 44 45 45 44 43 42 41 41 42 42 41 41 41 40 39 38 37 38 39 41 42 43 44 44 44 44 44 44 44 44 43 42 42 42 41 40 38 36 35 35 35 36 36
5 2 4 7 10 11 7 5 8 10 13 18 22 22 25 26 27 29 31 32 34 36 35 36 40 44 44 43 43 43 43 43 43 43 43 43 44 45 45 45 45 44 45 46 46 46 45 44 43 43 44 44 44 44 43 42 41 40 38 38 39 40 42 43 44 45 45 45 45 45 46 46 45 44 45 45 45 44 42 40 39 38 37 37 38
6 5 9 8 7 6 3 3 7 8 7 12 18 20 22 24 25 28 30 32 33 35 37 36 38 42 44 43 43 43 43 43 43 43 44 44 45 45 44 44 45 44 44 45 46 46 46 46 45 44 45 46 45 46 45 45 45 43 40 40 40 41 43 44 45 45 45 45 45 46 46 47 46 46 46 47 47 45 44 43 43 41 39 39 39
5 11 11 5 2 2 2 4 7 8 7 8 12 16 19 22 24 25 28 30 31 34 38 38 37 39 43 43 43 43 43 42 43 44 45 46 46 45 44 44 44 44 44 44 45 46 46 46 46 45 46 47 47 46 46 46 46 45 43 42 42 43 44 46 47 46 46 46 46 46 47 47 47 47 48 48 48 46 45 45 45 44 42 40 40
13 14 10 4 2 2 4 4 4 7 8 10 11 13 15 20 23 24 25 28 31 34 37 40 38 38 40 42 42 42 43 43 43 44 45 45 45 44 43 43 43 44 44 44 43 43 44 46 46 47 47 48 48 47 47 45 44 44 44 44 44 43 44 46 48 49 48 47 48 48 47 47 48 49 48 48 48 48 47 47 47 46 44 43 42
12 10 5 1 3 4 4 3 4 4 6 8 11 13 14 17 21 23 24 27 31 34 35 38 39 37 37 40 42 42 43 44 44 44 43 43 43 42 42 42 42 43 43 42 41 40 42 43 45 46 46 47 46 46 46 46 44 43 43 44 44 43 45 47 48 49 49 49 49 49 49 50 50 49 48 48 48 48 48 48 48 47 47 47 45
11 8 5 5 7 7 5 5 5 5 6 5 8 12 15 17 18 20 24 27 29 32 33 34 36 36 35 37 40 41 42 42 42 42 41 40 40 40 39 39 40 41 41 40 40 39 39 39 40 41 42 44 44 43 43 45 45 44 44 44 43 45 47 48 48 48 49 50 51 51 51 51 51 49 49 48 48 48 49 49 48 49 50 50 48
11 11 10 8 8 6 5 5 6 7 5 3 6 10 15 18 18 19 23 25 25 27 30 32 34 36 36 35 37 40 40 40 39 38 38 38 37 37 37 37 38 38 38 38 38 37 36 35 35 35 36 38 38 38 39 41 41 42 43 43 44 46 47 47 46 47 48 50 51 51 50 50 51 50 49 49 49 49 49 50 50 51 52 51 49
12 11 9 9 8 7 6 5 6 6 3 2 4 7 12 17 18 18 21 22 21 23 27 31 33 34 35 35 35 37 37 37 36 34 34 35 34 34 34 34 35 34 34 34 35 35 35 34 33 33 33 33 33 34 35 36 37 38 38 39 41 43 44 43 44 45 47 49 50 50 49 49 50 49 49 50 51 50 50 50 52 51 51 51 49
11 9 9 10 8 6 6 6 7 9 8 6 4 6 9 13 15 16 17 18 18 18 22 28 31 32 35 34 33 34 35 34 33 33 33 32 32 32 32 32 32 31 30 31 32 32 33 33 32 32 32 31 30 31 32 33 33 33 34 35 36 38 39 40 42 44 46 47 48 48 47 47 47 47 48 49 51 51 51 52 52 50 49 50 49
10 9 10 9 8 6 7 7 8 12 11 8 7 6 5 7 11 13 14 17 16 14 17 25 29 30 32 33 30 30 31 30 30 30 30 30 29 29 29 29 29 29 29 29 29 30 31 32 31 30 29 28 28 28 29 30 30 29 30 30 31 32 34 37 40 42 43 45 46 45 45 44 43 43 44 46 48 50 50 51 52 49 48 50 49
9 10 10 8 6 7 8 8 7 10 11 5 4 3 1 5 10 11 12 16 16 11 13 21 26 27 29 30 27 26 26 26 26 27 27 27 26 26 26 27 27 28 28 28 27 28 29 29 28 27 25 24 25 25 25 26 26 27 28 28 29 30 31 33 37 40 40 41 41 41 41 41 40 39 40 42 45 46 48 49 48 46 48 51 51
10 11 11 9 7 7 8 8 6 6 7 4 3 4 3 7 9 9 12 16 15 11 11 18 21 22 24 26 25 24 23 23 23 23 23 24 23 22 23 24 25 26 26 25 25 25 26 26 25 24 23 22 22 21 21 22 23 24 25 26 27 28 29 31 34 36 37 38 38 37 37 38 39 39 38 38 40 41 43 46 46 45 47 53 54
9 9 9 8 7 6 6 6 4 2 3 5 3 2 3 4 4 6 10 14 15 11 11 16 18 17 18 21 22 22 21 21 22 22 21 21 20 20 21 22 22 23 23 22 23 23 22 22 22 21 21 21 20 18 18 21 23 24 24 24 24 26 27 30 34 36 37 37 37 35 34 34 38 41 42 41 40 39 41 43 45 46 48 52 56
9 7 6 7 7 5 5 5 5 4 2 2 1 0 2 5 7 6 6 11 15 13 11 13 15 14 15 18 19 19 19 19 20 20 19 19 19 19 20 21 21 21 21 21 21 21 20 20 19 19 18 18 17 18 21 23 25 24 22 23 24 24 24 27 30 33 36 39 41 41 40 40 41 44 45 45 46 47 47 46 47 49 51 53 58
9 7 6 6 6 5 4 4 4 4 3 1 1 1 1 5 8 9 7 7 12 13 11 12 13 13 14 15 17 18 17 17 18 19 18 20 20 19 20 22 23 22 21 21 20 20 20 19 19 19 18 16 16 19 21 22 22 21 19 18 21 22 23 24 25 26 30 34 37 40 43 45 47 49 49 49 49 52 54 54 53 53 54 57 61
7 5 4 3 3 3 4 3 3 3 2 1 1 0 1 2 4 7 7 7 10 12 11 11 12 13 14 14 15 17 17 16 19 21 20 20 20 19 19 21 22 23 22 21 19 19 20 20 20 19 18 17 16 16 17 17 18 19 20 20 21 24 26 28 29 29 32 34 36 37 39 42 46 50 52 53 53 54 57 59 59 57 56 59 63
4 4 3 2 2 3 3 3 2 2 2 1 1 1 3 6 5 6 8 10 12 13 13 14 14 14 16 16 15 17 17 15 16 22 24 23 21 18 15 14 16 18 20 20 19 18 18 18 18 18 18 18 18 18 19 20 22 24 26 27 28 29 30 32 34 36 38 40 42 43 44 44 47 51 54 55 57 58 60 62 63 61 60 62 65
Wind_Direction
181 184 190 191 189 188 186 186 185 185 187 185 189 187 183 186 184 186 193 192 193 194 192 190 190 195 194 191 198 207 207 195 191 200 204 199 203 224 232 226 218 217 223 222 217 217 216 221 227 230 239 246 254 254 247 234 232 247 259 267 244 124 117 134 122 125 151 149 145 158 102 127 133 131 149 163 156 147 146 154 136 118 134 127 95
181 184 188 190 190 189 187 187 187 186 187 187 189 188 184 186 186 186 191 192 196 198 195 193 195 199 199 195 196 206 212 205 198 198 200 201 206 223 235 232 222 220 223 222 220 218 218 221 228 238 242 248 257 248 246 245 242 252 248 243 192 155 129 144 135 131 145 128 138 158 140 129 146 154 156 158 174 174 132 143 141 127 138 123 68
183 184 187 190 189 189 189 189 189 188 188 186 189 191 187 188 189 188 191 192 196 201 199 197 197 201 204 200 193 201 215 212 207 205 199 199 208 220 234 236 227 223 225 224 223 221 219 221 228 238 238 244 254 243 233 234 240 244 235 221 190 167 147 169 159 132 135 135 148 164 166 158 163 177 181 170 180 185 137 144 157 145 137 126 79
186 185 187 189 189 191 191 191 190 189 189 187 187 190 189 190 192 190 192 194 196 201 203 200 198 202 204 201 192 192 213 216 208 209 204 199 206 217 229 235 230 226 229 228 226 224 222 220 227 235 238 243 245 242 235 231 239 234 233 220 180 179 191 183 158 133 134 157 164 178 183 173 172 171 172 166 175 181 163 168 171 151 141 135 149
186 186 188 190 190 192 191 190 190 189 190 188 186 189 189 191 194 192 191 195 196 200 204 199 197 202 200 195 190 188 202 215 205 203 207 202 203 216 228 235 233 227 230 233 230 228 225 221 228 235 241 246 239 241 238 237 243 227 227 215 177 190 188 158 140 142 160 176 167 174 177 173 169 157 160 173 177 176 179 185 178 168 168 156 152
188 188 189 191 191 192 190 190 192 191 192 191 188 190 193 194 195 194 192 194 196 198 202 200 198 201 199 193 192 191 194 208 209 203 206 206 202 211 229 237 236 230 229 234 233 232 229 223 227 234 240 246 243 245 242 238 237 221 221 215 191 189 172 154 158 173 190 191 184 182 151 108 130 150 169 188 176 139 163 182 180 185 196 195 181
189 191 190 192 192 193 192 191 193 194 193 192 189 192 195 195 196 195 194 195 196 198 201 202 200 199 200 198 197 197 194 203 216 210 204 210 207 205 225 240 240 231 227 232 236 234 231 225 227 231 234 242 243 240 242 238 229 224 225 217 207 195 185 175 173 205 244 210 201 196 155 92 135 158 178 193 181 150 157 167 172 187 211 236 195
186 193 194 194 194 195 194 192 195 195 193 190 189 193 197 196 197 198 198 198 197 199 202 203 203 200 201 202 200 202 200 201 213 213 202 208 212 204 216 237 241 232 226 230 235 235 231 227 228 230 232 239 240 234 240 238 223 221 224 219 219 211 203 190 168 202 276 286 210 192 175 195 183 161 161 191 184 170 170 169 163 175 211 253 196
186 193 196 196 196 196 194 191 193 195 194 191 190 194 198 198 199 200 200 201 199 200 203 204 205 204 204 206 204 204 205 204 208 213 205 203 210 207 208 227 240 237 229 227 232 236 232 227 228 230 231 235 237 234 235 235 224 221 225 223 229 228 220 211 178 187 228 284 221 186 180 217 189 165 134 184 173 174 186 189 171 168 198 224 210
188 193 197 201 202 200 197 192 191 197 200 196 191 191 195 197 198 199 201 203 201 201 205 206 205 206 207 209 208 207 206 205 206 212 213 206 207 209 206 215 232 240 235 226 228 234 233 226 225 228 230 230 233 232 228 231 229 223 227 230 233 237 236 234 202 188 184 204 235 205 190 195 187 177 174 177 178 186 191 194 200 197 209 215 199
189 194 196 202 205 203 200 195 192 198 203 200 193 190 193 197 198 200 201 203 203 202 205 208 207 207 209 211 212 211 207 206 205 210 218 214 207 210 209 208 219 235 239 229 224 230 234 228 224 228 230 229 230 230 228 231 233 226 226 230 232 239 247 253 232 203 188 178 216 233 205 183 185 184 169 177 190 199 197 194 206 209 205 206 201
186 190 191 193 197 198 202 200 195 197 203 202 196 191 193 198 199 199 200 202 204 203 206 209 209 209 212 213 214 214 211 208 207 210 217 219 212 211 213 210 212 223 232 232 225 225 233 231 225 227 229 229 228 229 230 231 233 227 224 229 230 236 245 254 262 226 200 191 191 234 210 186 195 198 180 187 198 199 202 205 209 200 190 194 199
184 188 191 191 194 198 202 201 197 197 201 201 197 192 194 198 200 200 201 202 204 206 208 211 212 213 215 216 216 216 215 212 210 212 217 222 220 214 216 217 215 217 223 230 229 225 229 232 227 226 228 230 228 228 229 229 233 228 224 231 232 236 242 247 268 252 202 193 185 215 219 191 197 208 186 190 213 215 204 199 194 195 201 200 200
183 185 189 191 194 200 203 201 199 200 202 201 197 194 196 199 200 202 203 204 205 207 210 212 214 216 218 218 219 219 217 216 215 216 217 222 226 222 220 222 223 223 224 228 230 226 228 234 232 228 229 231 230 229 228 227 231 228 227 233 232 236 239 238 259 259 208 196 185 189 210 193 199 218 199 190 214 233 215 200 192 192 200 209 212
185 190 192 195 196 200 203 203 202 202 202 200 197 196 197 199 201 203 204 204 206 207 209 212 214 217 219 219 220 221 220 218 217 219 220 221 226 228 226 226 228 230 230 230 231 228 229 236 237 232 228 231 232 231 229 228 228 226 228 233 230 234 239 236 253 256 219 202 189 185 192 194 204 225 227 206 202 228 232 214 205 201 195 203 215
186 193 197 202 201 200 201 202 204 204 203 202 198 198 199 200 202 203 204 205 206 208 209 213 215 217 219 220 220 221 220 220 219 220 222 223 226 229 230 230 231 233 234 233 231 228 227 232 239 239 231 230 233 233 231 231 229 226 229 234 231 235 243 241 250 253 226 207 197 190 186 188 201 215 229 223 198 209 240 225 209 209 203 202 216
181 185 192 199 199 199 198 201 206 206 204 203 200 200 201 201 202 202 203 206 207 209 211 214 217 218 220 221 221 221 221 221 222 222 223 224 226 227 230 231 230 230 232 234 233 229 225 227 236 242 238 233 233 234 232 230 232 230 230 235 237 239 246 247 248 251 236 215 206 201 189 182 192 205 212 223 213 203 215 219 214 215 207 199 207
177 176 183 191 194 197 197 199 205 206 204 203 201 201 202 202 204 204 204 207 208 209 212 214 217 218 220 221 221 222 223 224 225 225 224 225 225 225 227 229 230 228 227 229 233 232 227 225 230 238 243 241 235 234 233 229 231 232 231 236 241 242 245 247 247 249 243 223 211 212 202 187 189 203 203 208 221 215 210 214 218 219 211 202 202
178 176 180 186 188 192 194 196 204 206 203 202 201 200 201 202 205 208 210 211 210 210 211 213 216 218 219 221 222 222 223 224 225 225 226 226 225 225 225 226 230 230 227 226 229 232 231 227 228 233 240 243 239 236 235 231 230 232 233 236 239 239 240 242 244 247 244 231 217 214 216 203 197 206 207 203 217 227 223 223 225 226 220 211 205
184 180 179 184 187 189 190 193 205 209 203 201 200 199 200 201 204 209 212 213 213 212 212 212 215 218 219 221 222 222 223 225 225 225 226 227 226 225 225 227 229 231 231 228 227 229 231 230 229 230 233 238 241 239 237 236 233 234 236 237 237 235 235 237 240 244 243 240 228 215 218 220 211 212 217 212 215 228 233 232 232 234 230 222 215
186 182 176 182 187 188 188 190 202 212 206 199 199 198 198 199 201 207 211 212 213 213 214 214 215 218 219 220 221 222 223 224 225 225 226 227 227 226 226 228 228 230 231 231 229 228 229 231 231 230 230 235 240 241 241 240 238 239 238 238 237 235 235 234 237 242 243 244 240 222 215 224 225 220 223 223 222 229 238 238 234 235 235 232 226
185 178 172 179 184 183 185 188 198 211 210 201 198 198 198 199 200 203 207 211 214 215 215 216 217 218 219 220 222 222 223 225 226 226 226 227 227 227 227 227 227 229 230 232 233 231 228 228 230 232 232 233 237 240 242 241 241 242 240 239 238 236 236 236 235 240 242 242 242 231 218 221 229 229 227 228 228 230 238 243 239 236 236 237 236
182 173 170 177 181 181 185 192 199 208 209 202 198 198 198 199 200 199 202 208 214 216 217 216 217 218 219 220 223 224 224 225 226 227 228 228 228 229 228 227 226 228 229 229 232 232 231 229 228 231 233 233 235 237 239 241 241 242 242 242 241 237 237 238 238 239 240 240 240 237 227 221 225 231 232 232 232 231 236 243 244 240 236 236 238
182 175 174 177 179 183 191 196 198 203 204 201 199 199 198 199 200 200 201 205 210 213 216 217 216 217 219 220 222 223 224 226 226 228 229 230 231 232 231 230 228 227 228 229 230 230 233 233 230 229 232 233 233 234 236 238 240 242 244 244 243 240 238 239 241 241 241 242 242 242 238 230 226 230 234 236 236 234 235 239 243 244 241 237 236
183 173 165 169 176 183 190 194 196 199 201 201 201 200 200 200 200 201 200 201 204 205 211 217 218 218 220 221 222 223 225 226 227 228 230 231 232 233 233 233 231 229 228 229 229 229 230 234 234 231 231 233 233 233 234 235 237 240 243 244 244 243 240 239 241 243 244 245 246 245 245 242 235 233 235 238 239 238 237 238 241 243 243 240 236
177 169 165 175 181 183 187 192 195 199 201 202 203 201 202 203 202 202 201 200 201 201 204 213 219 220 220 221 224 224 224 227 229 229 231 231 231 232 233 235 235 233 230 228 229 230 230 232 237 236 234 233 233 232 233 234 235 235 239 242 243 243 242 241 240 242 244 246 247 248 247 247 244 241 241 242 243 242 239 239 241 242 243 242 238
168 170 179 190 190 186 189 193 196 199 200 202 203 202 203 205 204 203 202 201 201 201 203 208 215 219 219 220 224 225 223 226 229 230 229 228 229 230 231 232 235 235 235 232 230 231 233 234 236 238 236 235 234 233 233 234 234 233 235 239 241 242 242 242 241 242 243 245 247 249 248 249 248 247 246 247 247 247 245 242 241 241 241 242 241
157 160 172 183 187 186 189 194 196 198 199 201 203 203 205 206 205 204 204 203 202 203 204 206 210 215 216 218 223 225 224 224 227 229 227 224 225 227 226 226 229 232 235 235 231 229 233 235 235 238 238 236 235 235 234 234 233 232 233 235 239 240 240 240 241 241 241 242 245 247 248 250 252 251 250 250 250 251 250 246 243 241 240 240 241
149 147 157 174 188 190 188 192 195 195 198 201 203 204 205 206 206 205 205 205 204 205 205 206 209 213 215 216 218 222 223 224 225 226 226 224 223 224 223 223 225 227 231 232 229 226 229 233 233 235 236 235 234 236 236 235 234 232 231 232 235 238 237 238 240 241 240 240 242 244 247 250 254 254 253 251 250 252 253 251 249 245 241 240 240
143 144 154 172 190 194 190 194 195 195 199 203 204 205 205 205 205 205 206 206 206 207 206 207 210 214 215 215 216 219 222 223 224 225 227 226 223 222 223 222 222 225 227 228 227 224 225 230 233 232 233 234 234 236 238 239 239 237 235 233 234 235 236 236 238 239 238 239 240 242 244 248 252 255 255 251 248 249 252 253 253 251 247 243 241
145 149 157 168 180 187 194 200 201 201 203 204 205 206 205 204 205 205 206 206 206 209 209 209 211 214 215 215 216 218 220 222 224 225 226 226 225 222 222 222 222 223 225 227 228 225 223 226 231 233 233 234 236 238 240 242 243 243 241 238 236 236 236 236 237 238 238 239 240 241 241 242 247 251 254 253 249 247 250 252 251 251 251 249 246
155 159 159 166 177 184 191 199 202 203 205 206 207 206 205 206 206 205 205 205 206 210 212 211 211 213 215 216 217 218 219 222 224 225 225 226 226 223 221 221 222 222 222 225 228 228 225 223 226 232 235 236 238 242 244 245 246 246 245 243 240 238 236 237 237 237 239 240 240 239 239 238 242 247 251 253 252 248 248 251 251 250 250 250 249
154 159 161 174 185 182 181 189 195 198 202 205 207 207 207 207 206 206 205 205 207 210 212 212 211 212 215 216 217 219 220 222 225 225 225 225 225 225 223 222 222 221 221 223 226 229 229 225 223 228 233 236 238 242 246 248 248 248 247 246 244 241 238 239 239 239 239 240 240 240 239 238 240 244 247 250 252 250 248 249 250 249 248 249 249
153 163 169 170 170 168 172 181 189 197 202 202 205 208 209 208 207 207 207 207 208 209 212 213 212 212 215 216 217 220 221 222 224 224 224 223 224 225 225 222 221 221 222 223 225 228 229 229 226 226 230 235 238 240 244 248 249 249 247 245 245 244 242 242 242 241 239 240 241 241 240 240 240 241 244 246 248 249 248 247 247 247 247 248 248
302 294 127 103 115 142 157 153 172 198 204 200 202 205 208 209 208 208 208 209 210 209 212 216 214 212 213 215 216 219 221 222 223 223 224 224 225 225 224 221 220 221 223 224 225 227 229 230 230 228 228 232 237 240 243 246 249 249 247 246 244 243 244 244 244 242 241 241 242 241 241 242 241 241 244 246 246 247 247 246 245 246 247 248 248
238 146 128 116 113 136 156 170 183 195 196 195 200 201 204 208 208 209 209 209 211 211 212 215 216 213 212 214 215 217 220 222 222 223 224 226 226 226 225 223 221 221 223 224 226 227 228 230 231 231 230 232 235 238 241 244 247 248 247 246 244 242 242 243 243 243 242 243 243 242 242 242 241 241 244 247 247 246 245 245 245 246 247 247 249
96 94 99 104 111 135 211 233 214 208 208 209 207 204 205 207 206 209 210 209 211 214 213 215 218 216 213 213 215 216 219 222 222 223 225 226 226 226 226 225 223 221 223 225 227 228 229 230 232 232 233 235 236 237 239 242 245 246 246 245 245 242 241 241 241 242 243 244 245 244 243 242 242 242 243 246 247 244 243 244 245 246 245 245 248
62 74 87 121 209 230 242 250 243 229 224 220 214 209 209 210 208 208 209 209 212 215 215 216 218 219 216 215 216 217 219 221 223 224 226 226 226 226 227 227 226 225 226 228 228 230 231 232 234 234 236 238 238 238 238 240 242 244 245 245 245 244 243 242 241 240 241 243 245 247 246 244 243 243 243 244 245 244 242 242 244 246 243 243 247
51 66 87 186 301 325 308 307 308 261 231 224 221 215 211 212 212 210 210 211 214 216 218 217 217 220 220 217 217 218 220 222 224 225 226 227 228 228 228 229 229 230 230 229 229 231 232 233 235 236 238 240 241 240 240 241 242 243 244 246 246 244 244 244 242 240 240 241 243 245 247 248 248 246 245 245 245 244 242 242 244 244 241 243 249
28 22 1 348 3 3 343 336 321 273 241 235 230 221 215 214 213 213 215 218 220 219 220 220 219 220 223 221 219 219 220 222 223 224 226 228 230 231 230 230 231 232 231 231 230 231 233 234 235 237 239 241 243 243 243 243 244 244 244 244 245 245 245 245 243 242 241 242 242 243 245 249 250 249 247 247 246 246 245 243 242 242 243 247 252
9 4 0 2 11 360 332 331 324 299 282 265 240 227 220 216 213 215 218 222 227 225 223 222 221 220 222 223 221 220 221 222 223 224 226 228 231 232 231 230 232 232 232 231 231 231 233 235 237 238 240 243 243 244 245 247 248 247 245 244 245 246 246 245 245 245 245 246 246 245 245 248 250 250 249 248 248 248 247 245 243 246 250 253 253
3 8 12 10 9 356 343 350 338 314 293 250 245 238 231 224 218 219 220 221 228 232 227 224 222 220 221 223 222 220 221 222 223 224 226 228 230 231 231 231 231 231 232 232 232 232 232 234 237 239 241 243 244 245 248 250 250 249 247 247 248 250 249 247 246 247 249 250 250 249 248 249 251 251 251 250 250 250 249 247 246 249 253 254 251
4 8 6 2 4 357 352 360 331 295 265 236 225 235 239 232 226 227 223 218 224 236 232 225 223 221 220 221 223 222 221 221 223 225 228 230 230 229 229 229 229 229 230 231 231 231 231 232 235 238 240 243 245 247 249 252 254 253 252 252 253 253 252 250 249 250 251 253 254 254 253 253 253 254 253 252 251 251 251 250 249 250 251 251 247
2 2 358 358 3 350 343 351 338 321 309 277 240 238 254 241 230 231 222 211 215 232 233 224 221 218 216 218 221 220 219 220 223 226 228 228 228 226 225 226 228 227 226 228 230 230 231 233 235 238 241 243 245 247 251 254 256 257 257 257 257 256 254 253 252 252 253 254 256 256 256 257 257 258 257 256 254 253 253 252 250 249 249 248 244
353 353 351 355 360 347 341 347 348 350 347 316 220 188 221 221 218 221 214 205 206 217 223 218 216 214 211 212 215 216 215 218 221 224 226 224 223 223 223 224 225 225 224 225 228 229 231 233 235 238 241 243 245 247 252 257 260 262 263 262 261 260 258 256 256 256 257 258 258 259 259 259 258 259 259 257 256 257 256 253 250 250 249 245 241
349 348 346 350 349 340 347 359 1 11 16 19 134 137 183 210 208 210 207 199 198 206 212 207 205 207 206 206 211 216 216 218 219 219 222 222 220 220 221 221 222 223 225 226 226 228 231 234 236 239 240 244 247 248 250 258 263 265 265 266 265 264 262 262 262 262 264 264 263 263 263 262 260 259 259 258 258 259 258 252 249 250 249 244 240
348 349 347 353 351 339 352 4 343 336 45 62 92 135 194 198 200 221 219 205 196 197 202 198 195 198 201 203 210 214 214 216 215 213 215 219 217 215 217 220 220 220 222 223 224 226 229 231 236 240 242 246 249 247 247 252 256 257 258 260 263 264 263 262 261 262 264 264 262 263 265 265 263 261 260 259 260 260 259 253 248 247 246 242 239
338 342 345 0 4 355 3 3 333 316 351 57 68 251 182 165 165 175 201 211 201 186 182 191 191 192 200 205 207 208 208 208 206 204 208 211 210 209 212 216 218 218 219 221 223 225 227 229 232 237 239 239 238 237 239 243 246 251 253 254 256 259 260 261 262 264 266 265 261 259 259 259 259 260 259 258 258 257 256 252 246 243 242 240 237
327 326 330 350 3 3 0 356 349 352 357 353 336 331 179 180 183 172 162 199 204 190 181 188 187 187 198 204 201 200 201 199 195 195 200 201 201 204 208 211 213 213 214 218 220 220 221 221 223 227 229 226 222 225 232 238 242 248 254 257 262 265 266 268 268 268 269 268 263 260 258 256 257 258 258 258 257 256 256 254 249 244 241 237 234
324 321 319 333 355 19 24 18 17 20 14 342 305 291 102 110 182 184 163 157 174 178 179 181 180 183 190 193 192 192 190 187 190 195 195 194 194 197 202 206 207 208 211 214 214 213 212 213 218 224 227 227 226 228 236 244 249 254 257 262 268 272 274 277 279 278 277 276 273 270 265 261 260 260 259 258 257 257 257 256 253 248 242 236 231
320 320 324 343 359 17 28 29 30 22 8 1 1 114 125 109 124 168 171 158 158 163 166 168 170 174 179 182 183 184 182 183 190 194 193 193 192 189 186 190 197 201 206 210 212 215 216 219 224 229 233 239 243 245 250 256 261 266 269 271 275 278 281 283 284 282 281 279 277 275 270 266 264 265 265 263 261 259 257 256 254 251 246 238 232